Regional & State Weather Roundups


882 
ASUS43 KFSD 111310
RWRFSD
WEATHER ROUNDUP FOR SE SOUTH DAKOTA/SW MINNESOTA/NW IOWA
NATIONAL WEATHER SERVICE SIOUX FALLS SD
700 AM CST MON DEC 11 2017
NOTE: "FAIR" INDICATES FEW OR NO CLOUDS BELOW 12,000 FEET WITH NO
SIGNIFICANT WEATHER AND OR OBSTRUCTIONS TO VISIBILITY.
SDZ038>040-050-052>070-111400-
SOUTHEAST SOUTH DAKOTA
  
CITY           SKY/WX    TMP DP  RH WIND       PRES   REMARKS
BROOKINGS      CLOUDY    38  30  73 NW23G30   29.80S                  
CHAMBERLAIN    CLOUDY    44  30  58 NW25G39   30.00S                  
HURON          CLOUDY    41  32  70 NW29G37   29.90R                  
MADISON        CLOUDY    37  32  81 NW30G37   29.83S                  
MITCHELL       CLOUDY    42  30  62 NW26G37   29.93R                  
SIOUX FALLS    CLOUDY    40  29  64 NW18G26   29.84R                  
WINNER         CLOUDY    44  26  49 NW32G46   30.07R                  
YANKTON        PTCLDY    43  27  53 NW30G38   29.92S                  
$$
MNZ071-072-080-081-089-090-097-098-111400-
SOUTHWEST MINNESOTA
  
CITY           SKY/WX    TMP DP  RH WIND       PRES   REMARKS
FAIRMONT       CLOUDY    35  27  72 W14       29.73F WCI  26          
JACKSON        PTCLDY    34  27  75 MISG      29.73F                  
LUVERNE        CLOUDY    36  30  80 NW18G30   29.82S                  
MARSHALL       LGT RAIN  37  34  89 NW21      29.76R                  
MONTEVIDEO     DRIZZLE   37  30  75 N20G28    29.75R                  
PIPESTONE      CLOUDY    36  28  75 NW16      29.79S                  
REDWOOD FALLS  CLOUDY    38  26  62 NW10      29.72S                  
TRACY          RAIN      37  34  87 NW25G32   29.76R                  
WINDOM           N/A     36  21  55 W20       29.73S                  
WORTHINGTON    CLOUDY    36  27  69 NW30G37   29.77R                  
$$
IAZ001>003-012>014-020>022-031-032-NEZ013-014-SDZ071-111400-
NORTHWEST IOWA
  
CITY           SKY/WX    TMP DP  RH WIND       PRES   REMARKS
CHEROKEE       CLEAR     37  25  60 NW20G29   29.82S                  
DENISON        CLOUDY    34  21  60 W12G18    29.86S WCI  25          
ESTHERVILLE    CLOUDY    35  26  69 W20G30    29.74R WCI  24          
LE MARS        MOCLDY    41  27  56 NW18G30   29.87R                  
ORANGE CITY    PTCLDY    39  28  65 NW24      29.83S                  
SHELDON        CLOUDY    37  27  65 NW29      29.80R                  
SIOUX CITY     LGT RAIN  44  24  45 NW30G40   29.87S                  
SPENCER        PTCLDY    36  24  62 W22       29.77F                  
STORM LAKE     CLEAR     34  21  60 W20       29.80S WCI  22          
$$
 
ABBREVIATIONS USED IN REMARKS
   TC - TEMPERATURE IN CELSIUS
  WCI - WIND CHILL INDEX
   HX - HEAT INDEX
  VSB - VISIBILITY
  

884 
ASUS43 KFSD 111310
RWRSD 
WEATHER ROUNDUP FOR SOUTH DAKOTA
NATIONAL WEATHER SERVICE SIOUX FALLS SD
700 AM CST MON DEC 11 2017
NOTE: "FAIR" INDICATES FEW OR NO CLOUDS BELOW 12,000 FEET WITH NO
SIGNIFICANT WEATHER AND/OR OBSTRUCTIONS TO VISIBILITY.
SDZ001>005-009-010-012>017-111400-
NORTHWEST AND NORTH CENTRAL SOUTH DAKOTA
  
CITY           SKY/WX    TMP DP  RH WIND       PRES   REMARKS
BUFFALO          N/A     38  25  59 NW38G52   30.11R                  
FAITH            N/A     39  27  62 NW41G52   30.10R                  
MOBRIDGE       CLOUDY    40  32  73 NW25G39   29.98R                  
$$
 
SDZ012>016-024>037-041>051-057-063-072>074-111400-
SOUTHWEST AND SOUTH CENTRAL SOUTH DAKOTA
  
CITY           SKY/WX    TMP DP  RH WIND       PRES   REMARKS
RAPID CTY ARPT CLOUDY    46  11  24 NW41G52   30.16R                  
PIERRE         CLOUDY    43  30  60 NW29G39   30.04R                  
CUSTER         CLOUDY    39   8  27 NW21G38   30.16S                  
ELLSWORTH AFB  PTCLDY    45  13  27 NW37G51   30.15                   
PHILIP         CLOUDY    44  24  45 NW22G29   30.14R                  
PINE RIDGE     CLOUDY    32  22  66 SW8       30.20S WCI  25          
SPEARFISH      FAIR      39  16  38 W21G37    30.24S                  
WINNER         CLOUDY    44  26  49 NW32G46   30.07R                  
$$
 
SDZ004>011-016>023-039-040-111400-
NORTHEAST SOUTH DAKOTA
  
CITY           SKY/WX    TMP DP  RH WIND       PRES   REMARKS
ABERDEEN       CLOUDY    41  34  76 NW26G36   29.89R                  
WATERTOWN      CLOUDY    35  34  96 NW23G30   29.80R WCI  23          
BROOKINGS      CLOUDY    38  30  73 NW23G30   29.80S                  
SISSETON         N/A     39  35  86 NW28G33   29.79R                  
$$
 
SDZ017-020-022-023-036>040-048>070-111400-
SOUTHEAST SOUTH DAKOTA
  
CITY           SKY/WX    TMP DP  RH WIND       PRES   REMARKS
SIOUX FALLS    CLOUDY    40  29  64 NW18G26   29.84R                  
HURON          CLOUDY    41  32  70 NW29G37   29.90R                  
CHAMBERLAIN    CLOUDY    44  30  58 NW25G39   30.00S                  
MITCHELL       CLOUDY    42  30  62 NW26G37   29.93R                  
YANKTON        PTCLDY    43  27  53 NW30G38   29.92S                  
$$
 
ABBREVIATIONS USED IN REMARKS
   TC - TEMPERATURE IN CELSIUS
  WCI - WIND CHILL INDEX
   HX - HEAT INDEX
  VSB - VISIBILITY